Terminal Aerodrome Forecast
Issued by NWS

Home | Current Version | Previous Version | Graphics & Text | Print | Product List | Glossary On
Versions: 1 2 3 4 5 6 7 8 9 10 11 12 13 14 15 16 17 18 19 20
000
FTUS43 KICT 181517 AAB
TAFCNU
TAF AMD
KCNU 181517Z 1815/1912 32022G30KT P6SM BKN030
     FM181700 30026G35KT P6SM SCT035
     FM190100 33013KT P6SM SKC=

USA.gov is the U.S. government's official web portal to all federal, state and local government web resources and services.